Location: Kielce
(50.8833°N, 20.6167°E)
Time: 22:36:55
(UTC+02:00)

SR - Pass Details

Date: 24 April 2021
Orbit: 573 x 882 km, 66.7° (Epoch: 09 May)

Event Time Altitude Azimuth Distance (km) Brightness Sun altitude
Rises 06:57:41 0° 199° (SSW) 3,330 ? 13.4°
Reaches altitude 10° 07:00:06 10° 195° (SSW) 2,439 ? 13.8°
Maximum altitude 07:05:38 55° 119° (ESE) 1,035 ? 14.7°
Drops below altitude 10° 07:11:25 10° 44° (NE) 2,548 ? 15.6°
Sets 07:13:59 0° 40° (NE) 3,491 ? 16.0°
